Regional Weather Roundup
Issued by NWS Columbia, SC

Home | Current Version | Previous Version | Text Only | Print | Product List | Glossary On
Versions: 1 2 3 4 5 6 7 8 9 10 11 12 13 14 15 16 17 18 19 20 21 22 23 24 25 26 27 28 29 30 31 32 33 34 35 36 37 38 39 40 41 42 43 44 45 46 47 48 49 50
000
ASUS42 KCAE 281610
RWRCAE
REGIONAL WEATHER ROUNDUP
NATIONAL WEATHER SERVICE COLUMBIA SC
1100 AM EST FRI NOV 28 2014

NOTE: "FAIR" INDICATES FEW OR NO CLOUDS BELOW 12,000 FEET WITH NO
SIGNIFICANT WEATHER AND/OR OBSTRUCTIONS TO VISIBILITY.

NOT ALL STATIONS ARE QUALITY CONTROLLED BY THE NATIONAL
WEATHER SERVICE. USE DATA WITH CAUTION...ESPECIALLY
DEWPOINT OBSERVATIONS.

SCZ001>056-GAZ040-063>065-077-281700-
...UPSTATE SOUTH CAROLINA...

CITY           SKY/WX    TMP DP  RH WIND       PRES   REMARKS
ANDERSON       SUNNY     39  20  46 VRB5      30.39F
LIBERTY        FAIR      38  22  51 MISG      30.37F
SPARTANBURG    FAIR      41  19  42 CALM      30.38S
CLEMSON        SUNNY     40  18  41 CALM      30.39F
GREENVILLE     SUNNY     40  16  37 VRB3      30.38S
GREENWOOD      SUNNY     39  19  44 CALM      30.42F
GREER          SUNNY     39  18  42 N3        30.37S
ROCK HILL      SUNNY     39  19  44 VRB3      30.38S
CHESTER        FAIR      43  18  36 N7        30.39F


...CENTRAL SOUTH CAROLINA...

CITY           SKY/WX    TMP DP  RH WIND       PRES   REMARKS
COLUMBIA APT   SUNNY     42  21  43 CALM      30.42S
COLUMBIA OWENS SUNNY     43  18  36 VRB5      30.43F
DARLINGTON     SUNNY     43  19  39 N10       30.40F
FLORENCE       SUNNY     43  21  41 N12       30.39F
MCENTIRE ANGB  SUNNY     42  19  38 E6        30.42F
ORANGEBURG     SUNNY     43  21  41 NE8       30.40F
SUMTER SHAW    SUNNY     42  20  42 E7        30.39F
NEWBERRY       FAIR      37  19  48 N3        30.44S
AIKEN          FAIR      41  23  48 CALM      30.44S
BARNWELL       FAIR      43  25  49 N7        30.43S
CAMDEN         FAIR      41  18  38 NE5       30.42R
LANCASTER      FAIR      41  18  38 N6        30.40R
WINNSBORO      FAIR      39  21  48 NW5       30.41R


...EASTERN AND COASTAL SOUTH CAROLINA...

CITY           SKY/WX    TMP DP  RH WIND       PRES   REMARKS
MYRTLE BEACH   SUNNY     45  21  39 N17       30.39R
N MYRTLE BCH   SUNNY     44  22  41 N14       30.37S
CONWAY         FAIR      43  25  49 N8G16     30.39S HAZE
MARION         FAIR      43  21  42 CALM      30.39F
FLORENCE       SUNNY     43  21  41 N12       30.39F
DARLINGTON     SUNNY     43  19  39 N10       30.40F
CHARLESTON APT SUNNY     46  21  37 N12G20    30.40S
MOUNT PLEASANT FAIR      45  23  42 N10       30.40R
WALTERBORO     SUNNY     45  21  39 N8        30.42F
BEAUFORT       SUNNY     46  25  43 NE10      30.42R


...EASTERN GEORGIA...

CITY           SKY/WX    TMP DP  RH WIND       PRES   REMARKS
AUGUSTA BUSH F SUNNY     43  22  43 NW5       30.42F
AUGUSTA DANIEL SUNNY     42  20  41 VRB3      30.41F
THOMSON        SUNNY     43  30  61 N3        30.46F
WASHINGTON     FAIR      43  30  61 S6        30.40F
SYLVANIA       SUNNY     46  31  57 E6        30.41F
STATESBORO     SUNNY     44  29  55 NE5       30.41F
SAVANNAH       SUNNY     48  25  40 N9        30.42S


...SOUTHERN NORTH CAROLINA...

CITY           SKY/WX    TMP DP  RH WIND       PRES   REMARKS
CHARLOTTE      MOSUNNY   41  18  39 NE7       30.38S
MONROE         SUNNY     40  18  41 N8        30.38R WCI  34
WADESBORO      SUNNY     41  18  40 N8        30.38F
ROCKINGHAM     SUNNY     39  20  46 N8        30.38F WCI  34
RUTHERFORDTON  SUNNY     38  18  44 N5        30.38S WCI  35
ASHEVILLE      SUNNY     33  18  53 N13       30.33F WCI  24

$$



USA.gov is the U.S. government's official web portal to all federal, state and local government web resources and services.